Showing default

SENTINEL 1A, 39634

Orbit data source: Space-Track

SENTINEL 1A, 39634 is a payload satellite owned by ESA (ESA) in SSO that was launched on Thu, 03 Apr 2014 UTC via a SOYUZ-ST-A launch vehicle from the French Guiana (FRGUI). Payload-class satellites include a variety of spacecraft equipped with specific instruments for various scientific and technological missions. These include communications satellites like Starlink; space stations such as the ISS; scientific satellites like the Hubble; Earth observation satellites from companies like Planet Labs, Umbra, and HawkEye 360; GPS; miniature CubeSats for education and research; and military/defense satellites.

Loading next visibility...
Identifier
39634, 2014-016A
Orbit
SSO
Last TLE update
8 hours ago
Origin
Manufacturer
Thales Alenia
Mission
Operational Civil Radar Imaging
Bus & Motor
PRISMA, AOCS
Mass
2,157 kg wet, 2,027 kg dry
Launch date (UTC)
2014-04-03 (11 years ago)
Launch vehicle
SOYUZ-ST-A
Launch site
French Guiana (FRGUI)
Object type
Payload
Rocket body
Debris
Shape & HBR
Box + 4 Pan, 21.04 m
Radar Cross Section
23.487 m², Large (>1 m²)

Expand to show TLE details & history

TLE from 8 hours ago
0 SENTINEL 1A
1 39634U 14016A   25128.93336663  .00000230  00000-0  58484-4 0  9992
2 39634  98.1800 137.3262 0001385  90.7024 269.4335 14.59199397591066
Epoch: 2025-05-08T22:24Z
Definitive object data (Epoch: 2025-05-08T22:24:02.876Z)
Latitude
0.00001°
Longitude
-65.68254°
Altitude
698.755 km
Speed
7.507 km/s
True Right ascension
09h 09m 18s
True Declination
0° 00' 00"
Sunlit
Object was in daylight at TLE epoch
Visualization TLE readout
Latitude
-72.3394°
Longitude
-38.67478°
Altitude
723.397 km
Speed
7.492 km/s
Apparent Right ascension
04h 08m 18s
Apparent Declination
-69° 52' 53"
Sunlit
Object is in daylight
Visualization observer readout
Local Sidereal Time
14:26:11
Azimuth
195.881° SSW
Elevation
-57.201°
Doppler factor
1
Orbital elements
Apogee altitude
693.821 km
Perigee altitude
691.862 km
Semi-major axis
7,070.979 km
Eccentricity
0.0001385
Inclination
98.18°
RAAN
137.3262°
Arg. of periapsis
90.7024°
True anomaly
269.41763°
Mean anomaly
269.4335°
Eccentric anomaly
269.42556°
Mean motion
3.65026 °/min
BSTAR
0.000058484
Orbital period
98.62 mins
Loading maneuver chart data...
Loading SW <> Apogee altitude chart data...
Loading historical data...
Loading historical data...
Loading historical data...
Loading historical data...
Loading historical data...
Loading historical data...
Loading historical data...

SENTINEL 1A Visibility forecast

Observer location: undefined°, undefined°

Span
Click to sort rows by Start time (UTC) header in descending order
Start Az.
Max El. time (UTC)
Max El. Az.
Max El.
End time (UTC)
End Az.
4 mins2025-05-09 12:10:23.299Z59.981° ENE2025-05-09 12:12:23.299Z85.956° E14.068°2025-05-09 12:14:23.299Z114.045° SE
7 mins2025-05-09 13:47:23.299Z358.55° N2025-05-09 13:50:23.299Z302.277° NW38.595°2025-05-09 13:54:23.299Z213.544° SW
7 mins2025-05-10 00:51:23.299Z186.3° SSW2025-05-10 00:54:23.299Z240.325° WSW38.654°2025-05-10 00:58:23.299Z334.272° NNW
|